EN

Hourly Weather Abak

Today, 30 November, Monday

Time Temperature Precipitation Wind Pressure Humidity
00:00 +27°C° 0 mm 1 mps 753 mmHg 88%
01:00 +27°C° 0 mm 1 mps 753 mmHg 90%
02:00 +26°C° 0 mm 1 mps 752 mmHg 91%
03:00 +26°C° 0 mm 1 mps 752 mmHg 92%
04:00 +26°C° 0 mm 1 mps 752 mmHg 93%
05:00 +26°C° 0 mm 1 mps 752 mmHg 92%
06:00 +26°C° 0 mm 1 mps 753 mmHg 92%
07:00 +26°C° 0 mm 1 mps 754 mmHg 91%
08:00 +29°C° 0 mm 1 mps 754 mmHg 82%
09:00 +31°C° 0 mm 1 mps 754 mmHg 72%
10:00 +33°C° 0 mm 1 mps 755 mmHg 62%
11:00 +34°C° 0 mm 1 mps 754 mmHg 55%
12:00 +36°C° 0 mm 1 mps 754 mmHg 47%
13:00 +37°C° 0 mm 1 mps 753 mmHg 40%
14:00 +37°C° 0 mm 1 mps 752 mmHg 40%
15:00 +36°C° 0 mm 1 mps 751 mmHg 40%
16:00 +36°C° 0 mm 1 mps 751 mmHg 40%
17:00 +35°C° 0 mm 2 mps 751 mmHg 53%
18:00 +31°C° 0 mm 2 mps 752 mmHg 65%
19:00 +29°C° 0 mm 3 mps 752 mmHg 78%
20:00 +28°C° 0 mm 2 mps 752 mmHg 80%
21:00 +28°C° 0 mm 2 mps 753 mmHg 83%
22:00 +28°C° 0 mm 2 mps 753 mmHg 85%
23:00 +27°C° 0 mm 2 mps 753 mmHg 87%

Tomorrow, 1 December, Tuesday

Time Temperature Precipitation Wind Pressure Humidity
00:00 +27°C° 0 mm 2 mps 753 mmHg 88%
01:00 +27°C° 0 mm 1 mps 753 mmHg 90%
02:00 +27°C° 0 mm 1 mps 753 mmHg 91%
03:00 +26°C° 0 mm 1 mps 753 mmHg 93%
04:00 +24°C° 0 mm 0 mps 752 mmHg 94%
05:00 +24°C° 0 mm 0 mps 753 mmHg 94%
06:00 +24°C° 0 mm 0 mps 753 mmHg 93%
07:00 +25°C° 0 mm 0 mps 754 mmHg 93%
08:00 +27°C° 0 mm 0 mps 754 mmHg 83%
09:00 +31°C° 0 mm 1 mps 754 mmHg 73%
10:00 +33°C° 0 mm 1 mps 754 mmHg 63%
11:00 +33°C° 0 mm 1 mps 754 mmHg 59%
12:00 +32°C° 0 mm 0 mps 753 mmHg 55%
13:00 +33°C° 0 mm 0 mps 752 mmHg 52%
14:00 +35°C° 0.1 mm 1 mps 752 mmHg 52%
15:00 +34°C° 0.1 mm 1 mps 751 mmHg 53%
16:00 +35°C° 0.1 mm 2 mps 751 mmHg 54%
17:00 +32°C° 0 mm 2 mps 751 mmHg 62%
18:00 +30°C° 0 mm 2 mps 751 mmHg 71%
19:00 +29°C° 0 mm 3 mps 752 mmHg 79%
20:00 +28°C° 0 mm 3 mps 752 mmHg 81%
21:00 +28°C° 0 mm 3 mps 753 mmHg 82%
22:00 +28°C° 0 mm 3 mps 753 mmHg 84%
23:00 +27°C° 0 mm 2 mps 753 mmHg 86%

Day after tomorrow, 2 December, Wednesday

Time Temperature Precipitation Wind Pressure Humidity
00:00 +27°C° 0 mm 2 mps 753 mmHg 88%
01:00 +27°C° 0 mm 1 mps 753 mmHg 90%
02:00 +26°C° 0 mm 1 mps 753 mmHg 91%
03:00 +26°C° 0 mm 1 mps 753 mmHg 92%
04:00 +26°C° 0 mm 1 mps 752 mmHg 93%
05:00 +26°C° 0.1 mm 1 mps 753 mmHg 93%
06:00 +26°C° 0.1 mm 1 mps 753 mmHg 92%
07:00 +27°C° 0.1 mm 1 mps 754 mmHg 91%
08:00 +28°C° 0.1 mm 1 mps 754 mmHg 83%
09:00 +30°C° 0.1 mm 1 mps 754 mmHg 75%
10:00 +32°C° 0.1 mm 2 mps 755 mmHg 67%
11:00 +33°C° 0.3 mm 1 mps 754 mmHg 61%
12:00 +34°C° 0.3 mm 1 mps 753 mmHg 56%
13:00 +35°C° 0.3 mm 1 mps 752 mmHg 51%
14:00 +35°C° 0.1 mm 1 mps 752 mmHg 52%
15:00 +34°C° 0.1 mm 1 mps 751 mmHg 53%
16:00 +34°C° 0.1 mm 2 mps 751 mmHg 55%
17:00 +32°C° 0 mm 2 mps 751 mmHg 63%
18:00 +30°C° 0 mm 2 mps 751 mmHg 72%
19:00 +28°C° 0 mm 3 mps 752 mmHg 80%
20:00 +28°C° 0 mm 2 mps 752 mmHg 82%
21:00 +28°C° 0 mm 2 mps 753 mmHg 84%
22:00 +27°C° 0 mm 2 mps 753 mmHg 86%
23:00 +27°C° 0 mm 2 mps 753 mmHg 88%

3 December, Thursday

Time Temperature Precipitation Wind Pressure Humidity
00:00 +27°C° 0 mm 1 mps 753 mmHg 89%
01:00 +26°C° 0 mm 1 mps 753 mmHg 91%
02:00 +26°C° 0 mm 1 mps 753 mmHg 92%
03:00 +26°C° 0 mm 1 mps 753 mmHg 93%
04:00 +26°C° 0 mm 1 mps 753 mmHg 94%
05:00 +26°C° 0.1 mm 1 mps 753 mmHg 93%
06:00 +26°C° 0.1 mm 1 mps 754 mmHg 92%
07:00 +27°C° 0.1 mm 1 mps 754 mmHg 91%
08:00 +28°C° 0.2 mm 1 mps 754 mmHg 83%
09:00 +30°C° 0.2 mm 1 mps 755 mmHg 74%
10:00 +31°C° 0.2 mm 2 mps 755 mmHg 66%
11:00 +33°C° 0.1 mm 1 mps 754 mmHg 59%
12:00 +34°C° 0.1 mm 1 mps 754 mmHg 52%
13:00 +36°C° 0.1 mm 1 mps 753 mmHg 46%
14:00 +35°C° 0.1 mm 1 mps 752 mmHg 49%
15:00 +35°C° 0.1 mm 2 mps 752 mmHg 51%
16:00 +34°C° 0.1 mm 2 mps 751 mmHg 54%
17:00 +31°C° 0.1 mm 2 mps 751 mmHg 63%
18:00 +30°C° 0.1 mm 2 mps 752 mmHg 72%
19:00 +28°C° 0.1 mm 3 mps 752 mmHg 81%
20:00 +28°C° 0 mm 2 mps 753 mmHg 83%
21:00 +27°C° 0 mm 2 mps 753 mmHg 85%
22:00 +27°C° 0 mm 1 mps 753 mmHg 86%
23:00 +27°C° 0 mm 1 mps 753 mmHg 87%

4 December, Friday

Time Temperature Precipitation Wind Pressure Humidity
00:00 +26°C° 0 mm 1 mps 753 mmHg 88%
01:00 +26°C° 0 mm 1 mps 753 mmHg 89%
02:00 +26°C° 0 mm 1 mps 753 mmHg 90%
03:00 +26°C° 0 mm 1 mps 753 mmHg 91%
04:00 +26°C° 0 mm 1 mps 753 mmHg 92%
05:00 +26°C° 0 mm 1 mps 753 mmHg 91%
06:00 +26°C° 0 mm 1 mps 754 mmHg 91%
07:00 +26°C° 0 mm 1 mps 754 mmHg 90%
08:00 +28°C° 0.1 mm 1 mps 754 mmHg 82%
09:00 +29°C° 0.1 mm 1 mps 755 mmHg 74%
10:00 +31°C° 0.1 mm 1 mps 755 mmHg 65%
11:00 +33°C° 0 mm 1 mps 755 mmHg 59%
12:00 +34°C° 0 mm 1 mps 754 mmHg 53%
13:00 +34°C° 0 mm 0 mps 754 mmHg 47%
14:00 +35°C° 0.1 mm 1 mps 753 mmHg 50%
15:00 +35°C° 0.1 mm 2 mps 753 mmHg 52%
16:00 +34°C° 0.1 mm 2 mps 752 mmHg 55%
17:00 +31°C° 0.1 mm 2 mps 752 mmHg 64%
18:00 +30°C° 0.1 mm 2 mps 753 mmHg 72%
19:00 +28°C° 0.1 mm 3 mps 753 mmHg 81%
20:00 +28°C° 0 mm 2 mps 753 mmHg 82%
21:00 +27°C° 0 mm 2 mps 754 mmHg 84%
22:00 +27°C° 0 mm 2 mps 754 mmHg 85%
23:00 +27°C° 0 mm 2 mps 754 mmHg 86%

5 December, Saturday

Time Temperature Precipitation Wind Pressure Humidity
00:00 +26°C° 0 mm 1 mps 754 mmHg 88%
01:00 +26°C° 0 mm 1 mps 754 mmHg 89%
02:00 +26°C° 0 mm 1 mps 754 mmHg 90%
03:00 +26°C° 0 mm 1 mps 754 mmHg 91%
04:00 +26°C° 0 mm 1 mps 753 mmHg 92%
05:00 +26°C° 0 mm 1 mps 754 mmHg 91%
06:00 +24°C° 0 mm 0 mps 754 mmHg 91%
07:00 +24°C° 0 mm 0 mps 754 mmHg 90%
08:00 +28°C° 0 mm 1 mps 755 mmHg 82%
09:00 +29°C° 0 mm 1 mps 755 mmHg 74%
10:00 +31°C° 0 mm 1 mps 755 mmHg 66%
11:00 +33°C° 0.1 mm 1 mps 755 mmHg 60%
12:00 +34°C° 0.1 mm 1 mps 754 mmHg 54%
13:00 +36°C° 0.1 mm 1 mps 753 mmHg 49%
14:00 +35°C° 0.3 mm 1 mps 753 mmHg 52%
15:00 +35°C° 0.3 mm 2 mps 752 mmHg 55%
16:00 +34°C° 0.3 mm 2 mps 752 mmHg 58%
17:00 +31°C° 0.4 mm 2 mps 752 mmHg 67%
18:00 +29°C° 0.4 mm 3 mps 752 mmHg 75%
19:00 +27°C° 0.4 mm 3 mps 753 mmHg 83%
20:00 +27°C° 0 mm 2 mps 753 mmHg 85%
21:00 +27°C° 0 mm 2 mps 754 mmHg 87%
22:00 +27°C° 0 mm 2 mps 755 mmHg 88%
23:00 +26°C° 0 mm 1 mps 754 mmHg 89%
Show more